Location: Most
(50.5330°N, 13.6500°E)
Time: 07:27:33
(UTC+01:00)

O/OREOS (USA 219) - Visible Passes

Search period start: 27 January 2022 00:00
Search period end: 06 February 2022 00:00
Orbit: 621 x 646 km, 72.0° (Epoch: 22 May)

Date Brightness Start Highest point End Pass type
(mag) Time Alt. Az. Time Alt. Az. Time Alt. Az.
28 Jan ? 06:55:53 10° N 06:57:43 12° NE 06:59:33 10° ENE visible
31 Jan ? 06:22:32 10° N 06:24:38 13° NE 06:26:43 10° ENE visible
01 Feb ? 06:43:49 10° N 06:47:14 20° NE 06:50:38 10° E visible
03 Feb ? 05:49:12 10° N 05:51:32 14° NE 05:53:50 10° ENE visible
04 Feb ? 06:10:34 10° N 06:14:07 21° NE 06:17:38 10° E visible
05 Feb ? 06:32:17 10° NNW 06:36:32 36° NE 06:40:43 10° ESE visible
